Location: Cambroso
(45.2833°N, 12.0850°E)
Time: 16:37:31
(UTC+00:00)

Cosmos 1777 Rocket - Pass Details

Date: 21 January 2021
Orbit: 758 x 776 km, 74.0° (Epoch: 26 February)

Event Time Altitude Azimuth Distance (km) Brightness Sun altitude
Rises 16:34:42 0° 185° (S) 3,222 7.6 -5.8°
Reaches altitude 10° 16:37:06 10° 181° (S) 2,303 6.8 -6.2°
Maximum altitude 16:42:10 53° 105° (ESE) 948 4.2 -7.0°
Drops below altitude 10° 16:47:18 10° 30° (NNE) 2,330 6.1 -7.9°
Sets 16:49:44 0° 26° (NNE) 3,263 6.8 -8.3°
Enters shadow 16:49:44 - 26° (NNE) 3,267 6.8 -8.3°
